THORAD AGENA D DEB, 4989

Orbit data source: Space-Track

THORAD AGENA D DEB, 4989 is space debris in SSO originally from a launch on Wed, 08 Apr 1970 UTC launched from the Air Force Western Test Range (AFWTR). Debris objects in space refer to the collection of defunct objects orbiting the Earth. Examples of debris include non-operational satellites, rocket bodies, and fragments generated from explosions, collisions, or faulty payload assembly.

Loading next visibility...
Identifier
4989, 1970-025HK
Orbit
SSO
Country
Flag of USUS
Related business
Manufacturer
Unknown
Mission
Spacecraft
Bus & Motor
Unknown
Mass
Unknown
Launch date (UTC)
1970-04-08 (56 years ago)
Launch vehicle
Unknown
Launch site
Air Force Western Test Range (AFWTR)
Object type
Payload
Rocket body
Debris
Shape & HBR
Unknown shape, 0.1 m
Radar Cross Section
Medium (>0.1 m² and <1 m²)

Expand to show TLE details & history
Last TLE update: 18 hours ago

TLE from 18 hours ago
0 THORAD AGENA D DEB
1 04989U 70025HK  26255.62554649  .00001335  00000-0  14000-2 0  9994
2 04989  99.6235 128.3627 0125021 313.3796 102.0534 13.73627876773527
Epoch: 2026-09-12T15:00Z
TLE epoch observation values (Epoch: 2026-09-12T15:00:47.216Z)
Latitude
55.71348°
Longitude
-102.78987°
Altitude
1,016.087 km
Speed
7.339 km/s
True Right ascension
07h 36m 09s
True Declination
55° 33' 32"
Sunlit
Object was in daylight at epoch
Visualization orbit readout
Latitude
Unknown
Longitude
Unknown
Altitude
Unknown
Speed
Unknown
Apparent Right ascension
Unknown
Apparent Declination
Unknown
Sunlit
N/A
Visualization observer readout
Local Sidereal Time
01:27:51
Azimuth
Unknown
Elevation
Unknown
Doppler factor
Unknown
Orbital elements
Apogee altitude
1,075.881 km
Perigee altitude
891.8 km
Semi-major axis
7,361.977 km
Eccentricity
0.0125
Inclination
99.6235°
RAAN
128.3627°
Arg. of periapsis
313.3796°
True anomaly
103.44975°
Mean anomaly
102.0534°
Eccentric anomaly
102.75205°
Mean motion
3.43599 °/min
Orbital period
104.77 mins
BSTAR
0.0014
Loading maneuver chart data...
Computing Atmospheric mass density...

Documentation

Showing up to 5 results
|